Погода в Салон-де-Провансе

Франция     43°38′37″N   5°05′42″E
темп.,
°C
ветер,
м/с
пор.,
м/с
влажн.,
%
обл.,
%
осадки,
мм/ч
давл.,
гПа
погр.,
м
31 июля, сб
сб3123:00+21юв12823 0.2 101117
02:00+20ссз25900 0.9 1011125
05:00+19с47911 0.0 1010202
08:00+20ссз35825 0.0 1010261
11:00+26ссз455176 0.0 1009633
14:00+30сз65305 0.0 10081333
17:00+31ссз553040 0.0 10071657
20:00+25ссз894784 0.0 1007727
1 августа, вс
вс123:00+18ссз71283100 1.1 1008408
02:00+16сз61180100 1.9 1010430
05:00+16ссз7157290 0.0 1009791
08:00+17ссз813655 0.0 1010686
11:00+22ссз1012470 0.0 10111188
14:00+26ссз9113593 0.0 10112313
17:00+26с893465 0.0 10102046
20:00+23ссз6104385 0.0 1011914
2 августа, пн
пн223:00+20ссз5135437 0.0 1013604
02:00+18ссз613635 0.0 1013608
05:00+16ссз512700 0.0 1014472
08:00+17ссз511643 0.0 1015506
11:00+23ссз7942100 0.0 10151068
14:00+27ссз78291 0.0 10151863
17:00+29с67260 0.0 10142314
20:00+26ссз23347 0.0 1014129
3 августа, вт
вт323:00+18зюз227099 0.0 101618
02:00+18ссв1179100 0.0 101612
05:00+17с216297 0.0 101613
08:00+19с12525 0.0 101696
11:00+26ссз33325 0.0 1016571
14:00+32зсз232342 0.0 10142093
17:00+30юз66275 0.0 10131341
20:00+26зюз353489 0.0 1014223
4 августа, ср
ср423:00+20ю116014 0.0 101515
02:00+19юв1173100 0.0 101514
05:00+21в226299 0.0 101329
08:00+22ссв1149100 0.0 101475
11:00+24с6859100 0.4 1015698
14:00+27сз454592 0.6 10151342
17:00+31сз48305 0.0 10132815
20:00+27зсз79366 0.0 1013740